Location: Leverkusen
(51.0459°N, 7.0192°E)
Time: 14:30:25
(UTC+01:00)

ISS - Pass Details

Date: 02 February 2019
Orbit: 403 x 411 km, 51.6° (Epoch: 20 February)

Event Time Altitude Azimuth Distance (km) Brightness Sun altitude
Rises 19:39:18 0° 283° (WNW) 2,339 1.4 -21.3°
Reaches altitude 10° 19:41:24 10° 281° (W) 1,478 0.1 -21.6°
Enters shadow 19:44:10 57° 257° (WSW) 492 -3.2 -22.1°
